Rechercher aéroport 
image banner adimage banner ad
image banner ad

SIUA - Fazenda Barra do Lagoa Airport

Situé à Santa Rita Do Pardo, Brazil

ICAO - SIUA, IATA -

Données fournies par Airmate  

Information générale

Coordonnées: S30°7'10" W50°51'13"
Élévation : 118 feet MSL.
Variation magnétique : -17° East
Voir autres Aéroports à Rio Grande do Sul

Données opérationnelles

Accessible au public
Heure actuelle UTC:
Heure actuelle locale:
Météo à : SBPA - Salgado Filho ( 34 km )
METAR: SBPA 262200Z 09005KT 040V100 2000 R11/P2000 R29/P2000 RA BR BKN008 OVC035 22/22 Q1004
TAF: TAF SBPA 261500Z 2618/2718 30012KT 9000 SHRA SCT025 TX28/2618Z TN22/2708Z PROB40 2620/2702 10010KT 8000 TSRA BKN015 FEW030CB BECMG 2702/2704 29014KT 6000 DZ BKN012 FEW025TCU BECMG 2706/2708 28015KT 8000 SHRA BKN017 BECMG 2709/2711 9000 BKN024 BECMG 2715/2717 27010KT 9999 FEW030 RMK PAY
Voir NOTAMs / SUP AIP / TFR affectant cet aéroport [VIEW]
Fréquences de communication: [VIEW]

Pistes:

Identifiant RWYQFULongueur (ft)Largeur (ft)SurfaceLDA (ft)
17147665GRASS
35147665GRASS

Coordonnées de l'aéroport

Adresse: Santa Rita Do Pardo Brazil

Vue satellite de SIUA